Regional Weather Roundup
Issued by NWS

Home | Current Version | Previous Version | Text Only | Print | Product List | Glossary Off
Versions: 1 2 3 4 5 6 7 8 9 10 11 12 13 14 15 16 17 18 19 20 21 22 23 24 25 26 27 28 29 30 31 32 33 34 35 36 37 38 39 40 41 42 43 44 45 46 47 48 49 50

097
ASUS43 KMKX 221900
RWRWI

WISCONSIN REGIONAL WEATHER ROUNDUP
NATIONAL WEATHER SERVICE MILWAUKEE/SULLIVAN WI
200 PM CDT TUE AUG 22 2017

NOTE: "FAIR" INDICATES FEW OR NO CLOUDS BELOW 12,000 FEET WITH NO
SIGNIFICANT WEATHER AND/OR OBSTRUCTIONS TO VISIBILITY.

WIZ001-002-006>008-014>016-023>028-222000-
NORTHWEST WISCONSIN

CITY           SKY/WX    TMP DP  RH WIND       PRES   REMARKS
SUPERIOR ARPT    N/A     65  51  60 NW10G22   29.94S
ASHLAND        PTSUNNY   70  51  51 W17       29.92R
HAYWARD        CLOUDY    68  48  48 VRB7G20   29.96R
SIREN          PTSUNNY   70  46  42 NW14G24   30.00R
CUMBERLAND     MOSUNNY   68  46  45 NW16G24   29.99S
RICE LAKE      MOSUNNY   70  51  50 W15G21    30.00S
CHETEK         PTSUNNY   70  50  48 NW13G25   29.98F
LADYSMITH      MOSUNNY   71  50  47 W15G24    29.98S
EAU CLAIRE     MOSUNNY   73  50  44 NW16G24   29.98S
MENOMONIE      SUNNY     72  52  49 W15G22    30.00S
NEW RICHMOND   MOSUNNY   71  47  41 NW15G23   30.02S
OSCEOLA        MOSUNNY   73  48  41 W18G26    30.04S
$$

WIZ003>005-009-010-017-018-222000-
NORTH CENTRAL WISCONSIN

CITY           SKY/WX    TMP DP  RH WIND       PRES   REMARKS
MANITOWISH WTR PTSUNNY   68  50  52 NW15      29.91S
ARBOR VITAE    MOSUNNY   67  50  53 W15G21    29.91S
WOODRUFF       MOSUNNY   67  50  53 W15G21    29.91S
RHINELANDER    PTSUNNY   68  49  50 W12G22    29.92R
EAGLE RIVER    PTSUNNY   67  45  45 NW16G24   29.89S
LAND O LAKES   MOSUNNY   67  45  46 NW15G24   29.90S
PHILLIPS       PTSUNNY   67  49  52 W8G22     29.93S
TOMAHAWK         N/A     67  47  48 W10G22    29.93S
MEDFORD        MOSUNNY   67  49  52 W16G24    29.95S
MERRILL        MOSUNNY   70  48  46 NW13G22   29.93S
$$

WIZ029-030-035-036-043>047-222000-
CENTRAL WISCONSIN

CITY           SKY/WX    TMP DP  RH WIND       PRES   REMARKS
WAUSAU         MOSUNNY   70  48  45 W16G24    29.91S
MOSINEE        PTSUNNY   70  48  46 NW17G24   29.95R
MARSHFIELD     MOSUNNY   72  47  40 NW22G28   29.95S
STEVENS POINT  MOSUNNY   69  47  45 W13G22    29.93S
WAUPACA        MOSUNNY   75  48  39 NW13G22   29.91S
WAUTOMA        MOSUNNY   73  49  42 NW20      29.93
WISC RAPIDS    MOSUNNY   74  50  42 NW14G29   29.96R
CAMP DOUGLAS   NOT AVBL
$$

WIZ011>013-019>022-031-037>040-048>050-222000-
NORTHEAST WISCONSIN

CITY           SKY/WX    TMP DP  RH WIND       PRES   REMARKS
ANTIGO         MOSUNNY   67  49  52 NW17G26   29.91S
SHAWANO        PTSUNNY   74  51  42 NW12G18   29.87S
OCONTO         PTSUNNY   72  51  47 NW12G26   29.84S
STURGEON BAY   SUNNY     71  54  54 W15G21    29.85R
GREEN BAY      MOSUNNY   72  51  47 NW18G25   29.87R
MANITOWOC      NOT AVBL
APPLETON       PTSUNNY   73  45  35 NW21G28   29.89R
CLINTONVILLE   PTSUNNY   72  45  37 NW15G25   29.89R
OSHKOSH        MOSUNNY   73  51  46 NW14G24   29.89R
$$

WIZ032>034-041-042-053>061-222000-
SOUTHWEST WISCONSIN

CITY           SKY/WX    TMP DP  RH WIND       PRES   REMARKS
LA CROSSE      MOSUNNY   76  51  41 NW16      30.00R
SPARTA         MOSUNNY   71  50  47 W16G22    29.99R
VIROQUA        MOSUNNY   70  52  54 W12G20    30.01R
BOSCOBEL       MOSUNNY   78  50  37 NW14G21   30.00R
PRAIRIE DU CHI MOSUNNY   75  47  36 NW14G22   30.01R
PLATTEVILLE    MOSUNNY   72  56  57 NW15G21   30.00R
$$

WIZ056-057-062-063-064-067-068-222000-
SOUTH CENTRAL WISCONSIN

CITY           SKY/WX    TMP DP  RH WIND       PRES   REMARKS
REEDSBURG      MOSUNNY   73  51  45 W16G22    29.96R
BARABOO/DELLS  MOSUNNY   72  48  42 NW8G18    29.95R
LONE ROCK      NOT AVBL
MINERAL POINT  MOSUNNY   73  50  43 NW13G21   29.99R
MADISON        MOSUNNY   74  52  46 NW12G22   29.94R
MIDDLETON      MOSUNNY   74  54  48 NW14      29.95S
WATERTOWN      PTSUNNY   74  54  49 NW17      29.91S
MONROE         MOSUNNY   72  50  46 NW14G22   29.96R
JANESVILLE     MOSUNNY   79  52  38 NW13G21   29.93R
$$

WIZ051-052-058>065-066-070>072-222000-
SOUTHEAST WISCONSIN

CITY           SKY/WX    TMP DP  RH WIND       PRES   REMARKS
MILWAUKEE      MOSUNNY   79  50  36 NW17G28   29.89R
WAUKESHA       SUNNY     73  48  40 W21       29.92R
MILWAUKEE/TIMM MOSUNNY   75  46  35 W20G26    29.90R
RACINE         MOSUNNY   77  56  48 NW14G24   29.90R
KENOSHA        MOSUNNY   78  54  43 NW15G23   29.90R
FOND DU LAC    MOSUNNY   73  49  42 NW17G24   29.90R
SHEBOYGAN      MOSUNNY   73  54  51 NW17G23   29.88R
WEST BEND      MOSUNNY   72  46  40 NW18G25   29.90R
JUNEAU         PTSUNNY   71  51  50 W7G18     29.93R
$$

LSZ147-162-222000-
LAKE SUPERIOR

STATION/POSITION TIME  TEMP    WIND        PRES    WAVE
                       AIR SEA DIR/SP/G            HT/PER
                 (UTC) (F)     (DEG/KT/KT) (MB)    (FT/S)
W MID LAKE BUOY  1750   61 60  260/ 19/ 23 1009.6F   3/ 5
DEVILS ISLAND    1800   63     240/ 21/ 26 1011.5F
SAXON HARBOR     1840   67     310/ 18/ 22 1012.2R
$$

LMZ867-665-643>646-222000-
LAKE MICHIGAN

STATION/POSITION TIME  TEMP    WIND        PRES    WAVE
                       AIR SEA DIR/SP/G            HT/PER
                 (UTC) (F)     (DEG/KT/KT) (MB)    (FT/S)
S GREEN BAY BUOY 1830   71 71  280/ 17/ 21 1010.4S
N MID LAKE BUOY  1750   66 67  280/ 16/ 19 1008.9R   4/ 5
NORTHPORT PIER   1840   69     300/ 11/ 19 1009.5R
KEWAUNEE LAKESHO 1830   72     300/  8/ 13 1009.8S
SHEBOYGAN LAKESH 1800   71     320/ 22/ 27 1010.7R
PORT WASHINGTON  1840   76     310/ 12/ 17 1012.5R
ATWATER BUOY     1709   71 66  310/ 16/ 21 1011.5R
MILWAUKEE LAKESH 1830   74     290/ 16/ 21   N/A
S MID LAKE BUOY  1750   71 71  310/ 12/ 14 1010.9R   3/ 5
KENOSHA   LAKESH 1800   75     320/ 19/ 24 1010.8
$$

TC  - TEMPERATURE IN CELSIUS
VSB - VISIBILITY IN STATUTE MILES
WCI - WIND CHILL INDEX
HX  - HEAT INDEX





USA.gov is the U.S. government's official web portal to all federal, state and local government web resources and services.